Tracking 17143 objects as of 25-May-2015
HD Live streaming from Space Station

EUTELSAT 2-F4

Track EUTELSAT 2-F4 now!
EUTELSAT 2-F4 is classified as:


NORAD ID: 22028
Int'l Code: 1992-041B
Perigee: 36,098.1 km
Apogee: 36,164.7 km
Inclination: 11.9 °
Period: 1,453.4 minutes
Semi major axis: 42502 km
RCS: 3.1622 m2 (large)
Launch date: July 9, 1992
Source: European Telecommunications Satellite Organization (EUTE)
Your satellite tracking list
Your tracking list is empty





NASA's NSSDC Master Catalog

Two Line Element Set (TLE):
1 22028U 92041B   15144.19673015 -.00000043  00000-0  00000+0 0  9994
2 22028 011.9462 039.5729 0007843 146.6744 327.9168 00.99079250 76187

Source of the keplerian elements: AFSPC

N2YO: 322